Location: Newark
(11.4947°N, 0.1467°E)
Time: 12:56:38
(UTC+00:00)

Envisat - Pass Details

Date: 16 November 2019
Orbit: 764 x 766 km, 98.1° (Epoch: 13 December)

Event Time Altitude Azimuth Distance (km) Brightness Sun altitude
Rises 18:57:07 0° 188° (S) 3,223 6.6 -20.8°
Reaches altitude 10° 18:59:39 10° 198° (SSW) 2,297 5.9 -21.4°
Maximum altitude 19:04:05 31° 259° (W) 1,319 4.9 -22.4°
Drops below altitude 10° 19:08:32 10° 321° (NW) 2,296 5.7 -23.4°
Sets 19:11:04 0° 332° (NNW) 3,222 6.4 -24.0°
